Date String (YYYY-MM-DD hh:mm:ss) UTC,Instrument flags,absolute air pressure of the measurement (hPa),sample flow rate (lpm),inlet stack bypass flow (lpm),air temperature of the measurement (°C),ambient temperature measured by the external sensor (°C),aerosol sample conditioner tube jacket temperature (°C),OPC LED temperature (°C),internal box temperature (°C),relative humidity of the measurement (%),span deviation,mass concentration of particles derived from Lorenz-Mie calculation of OPC scattering (μg/m³),mass concentration of particles derived from Lorenz-Mie calculation of OPC scattering (μg/m³),mass concentration of particles derived from Lorenz-Mie calculation of OPC scattering (μg/m³)
DateTimeUTC,F1_M11,P_M11,Q1_M11,Q2_M11,T1_M11,T2_M11,T3_M11,T4_M11,T5_M11,U1_M11,ZSPAN_M11,X2_M11,X0_M11,X1_M11
2024-01-23 15:00:00,SystemResetWarning,0825.9,5.00,000.00,021.7,020.7,000.0,030.1,023.1,18.3,0001.9,0011.07,0015.86,0010.59
2024-01-23 15:01:00,SystemResetWarning,0825.9,5.00,000.00,021.7,020.7,000.0,030.1,023.1,18.3,0002.2,0011.03,0015.76,0010.57
2024-01-23 15:02:00,SystemResetWarning,0825.9,5.00,000.00,021.7,020.7,000.0,030.1,023.1,18.3,0002.5,0010.97,0016.03,0010.53
2024-01-23 15:03:00,SystemResetWarning,0825.9,5.00,000.00,021.7,020.8,000.0,030.1,023.1,18.4,0002.6,0010.95,0016.27,0010.51
2024-01-23 15:04:00,SystemResetWarning,0825.9,5.00,000.00,021.7,020.8,000.0,030.1,023.1,18.6,0002.5,0010.91,0016.18,0010.49
2024-01-23 15:05:00,SystemResetWarning,0825.9,5.01,000.00,021.7,020.8,000.0,030.1,023.1,18.6,0002.6,0010.87,0016.02,0010.45
2024-01-23 15:06:00,SystemResetWarning,0825.9,5.00,000.00,021.7,020.8,000.0,030.1,023.1,18.5,0002.6,0010.84,0016.63,0010.46
2024-01-23 15:07:00,SystemResetWarning,0825.9,5.00,000.00,021.7,020.8,000.0,030.1,023.1,18.6,0002.7,0010.80,0016.78,0010.45
2024-01-23 15:08:00,SystemResetWarning,0825.9,5.00,000.00,021.7,020.8,000.0,030.1,023.1,18.6,0002.7,0010.81,0016.79,0010.45
2024-01-23 15:09:00,SystemResetWarning,0825.9,5.00,000.00,021.7,020.9,000.0,030.1,023.1,18.6,0002.7,0010.81,0016.89,0010.45
2024-01-23 15:10:00,SystemResetWarning,0825.9,4.99,000.00,021.7,020.9,000.0,030.1,023.1,18.7,0002.7,0010.81,0016.36,0010.44
2024-01-23 15:11:00,SystemResetWarning,0825.9,5.00,000.00,021.7,020.9,000.0,030.1,023.1,18.7,0002.8,0010.83,0016.80,0010.43
2024-01-23 15:12:00,SystemResetWarning,0825.9,5.00,000.00,021.7,020.8,000.0,030.1,023.1,18.8,0002.6,0010.86,0017.03,0010.44
2024-01-23 15:13:00,SystemResetWarning,0825.9,5.00,000.00,021.7,020.8,000.0,030.1,023.1,18.7,0002.6,0010.88,0017.00,0010.46
2024-01-23 15:14:00,SystemResetWarning,0825.9,5.00,000.00,021.7,020.9,000.0,030.1,023.1,18.6,0002.5,0010.88,0016.68,0010.48
2024-01-23 15:15:00,SystemResetWarning,0826.0,5.00,000.00,021.7,020.9,000.0,030.1,023.1,18.6,0002.5,0010.91,0017.20,0010.49
2024-01-23 15:16:00,SystemResetWarning,0825.9,5.00,000.00,021.7,020.9,000.0,030.1,023.1,18.7,0002.5,0010.87,0017.77,0010.46
2024-01-23 15:17:00,SystemResetWarning,0825.9,5.00,000.00,021.7,020.9,000.0,030.1,023.2,18.9,0002.6,0010.83,0017.52,0010.42
2024-01-23 15:18:00,SystemResetWarning,0825.9,5.00,000.00,021.7,020.9,000.0,030.1,023.2,19.0,0002.6,0010.80,0017.59,0010.38
2024-01-23 15:19:00,SystemResetWarning,0825.9,5.01,000.00,021.7,020.9,000.0,030.1,023.2,19.2,0002.5,0010.77,0017.92,0010.33
2024-01-23 15:20:00,SystemResetWarning,0825.9,5.01,000.00,021.7,020.9,000.0,030.1,023.1,18.9,0002.3,0010.74,0017.89,0010.28
2024-01-23 15:21:00,SystemResetWarning,0825.9,5.00,000.00,021.7,020.9,000.0,030.1,023.1,18.7,0002.4,0010.70,0017.73,0010.24
2024-01-23 15:22:00,SystemResetWarning,0825.9,4.99,000.00,021.7,020.9,000.0,030.1,023.1,18.6,0002.3,0010.64,0017.36,0010.18
2024-01-23 15:23:00,SystemResetWarning,0825.9,4.99,000.00,021.7,020.9,000.0,030.1,023.1,18.9,0002.4,0010.60,0017.14,0010.14
2024-01-23 15:24:00,SystemResetWarning,0826.0,5.00,000.00,021.7,020.9,000.0,030.1,023.1,18.8,0002.5,0010.57,0017.07,0010.10
2024-01-23 15:25:00,SystemResetWarning,0826.0,5.01,000.00,021.7,020.9,000.0,030.1,023.1,18.8,0002.4,0010.54,0016.90,0010.06
2024-01-23 15:26:00,SystemResetWarning,0826.0,5.00,000.00,021.7,020.9,000.0,030.1,023.1,18.7,0002.7,0010.48,0016.29,0010.03
2024-01-23 15:27:00,SystemResetWarning,0826.0,5.00,000.00,021.7,020.9,000.0,030.1,023.1,18.7,0003.0,0010.46,0015.95,0010.03
2024-01-23 15:28:00,SystemResetWarning,0826.0,4.99,000.00,021.7,020.9,000.0,030.1,023.1,18.5,0003.1,0010.46,0016.01,0010.04
2024-01-23 15:29:00,SystemResetWarning,0826.0,4.99,000.00,021.7,020.9,000.0,030.1,023.1,18.6,0003.1,0010.47,0016.00,0010.04
2024-01-23 15:30:00,SystemResetWarning,0826.0,4.99,000.00,021.7,020.9,000.0,030.1,023.1,18.7,0003.1,0010.50,0015.68,0010.07
2024-01-23 15:31:00,SystemResetWarning,0826.0,5.00,000.00,021.7,020.9,000.0,030.1,023.1,18.9,0003.3,0010.49,0015.60,0010.08
2024-01-23 15:32:00,SystemResetWarning,0826.0,5.00,000.00,021.7,020.9,000.0,030.1,023.2,18.7,0003.3,0010.51,0015.77,0010.08
2024-01-23 15:33:00,SystemResetWarning,0826.0,5.01,000.00,021.7,020.9,000.0,030.1,023.2,18.5,0003.3,0010.52,0015.92,0010.09
2024-01-23 15:34:00,SystemResetWarning,0826.0,5.01,000.00,021.7,020.9,000.0,030.1,023.2,18.5,0003.3,0010.51,0015.94,0010.10
2024-01-23 15:35:00,SystemResetWarning,0826.1,5.01,000.00,021.8,021.0,000.0,030.1,023.2,18.6,0003.3,0010.45,0015.75,0010.08
2024-01-23 15:36:00,SystemResetWarning,0826.1,4.99,000.00,021.8,021.0,000.0,030.1,023.2,18.6,0003.2,0010.41,0015.70,0010.04
2024-01-23 15:37:00,SystemResetWarning,0826.0,4.99,000.00,021.8,021.0,000.0,030.1,023.2,18.6,0003.1,0010.37,0015.55,0009.99
2024-01-23 15:38:00,SystemResetWarning,0826.0,5.00,000.00,021.8,021.0,000.0,030.1,023.2,18.7,0003.0,0010.33,0015.14,0009.95
2024-01-23 15:39:00,SystemResetWarning,0826.0,5.01,000.00,021.8,021.0,000.0,030.1,023.2,18.7,0003.0,0010.25,0014.50,0009.88
2024-01-23 15:40:00,SystemResetWarning,0826.1,5.00,000.00,021.8,021.0,000.0,030.1,023.2,18.8,0003.0,0010.17,0013.86,0009.82
2024-01-23 15:41:00,SystemResetWarning,0826.2,5.00,000.00,021.8,021.0,000.0,030.1,023.2,18.7,0003.0,0010.09,0013.66,0009.74
2024-01-23 15:42:00,SystemResetWarning,0826.2,5.00,000.00,021.8,021.0,000.0,030.1,023.2,18.7,0002.9,0010.07,0013.63,0009.72
2024-01-23 15:43:00,SystemResetWarning,0826.2,5.00,000.00,021.8,021.0,000.0,030.1,023.2,18.7,0002.8,0010.03,0013.43,0009.71
2024-01-23 15:44:00,SystemResetWarning,0826.2,5.00,000.00,021.8,021.0,000.0,030.1,023.2,18.6,0002.9,0010.02,0013.29,0009.69
2024-01-23 15:45:00,SystemResetWarning,0826.2,5.00,000.00,021.8,021.0,000.0,030.1,023.2,18.7,0002.9,0010.00,0013.16,0009.65
2024-01-23 15:46:00,SystemResetWarning,0826.2,5.00,000.00,021.8,021.0,000.0,030.1,023.2,18.7,0003.0,0010.01,0013.21,0009.63
2024-01-23 15:47:00,SystemResetWarning,0826.2,5.00,000.00,021.8,021.0,000.0,030.1,023.3,18.7,0003.1,0010.05,0013.32,0009.64
2024-01-23 15:48:00,SystemResetWarning,0826.2,5.00,000.00,021.8,021.1,000.0,030.1,023.3,18.8,0003.0,0010.11,0013.45,0009.69
2024-01-23 15:49:00,SystemResetWarning,0826.2,4.99,000.00,021.8,021.1,000.0,030.1,023.3,18.7,0002.8,0010.17,0013.54,0009.73
2024-01-23 15:50:00,SystemResetWarning,0826.2,4.99,000.00,021.8,021.1,000.0,030.1,023.3,18.6,0002.8,0010.22,0013.65,0009.78
2024-01-23 15:51:00,SystemResetWarning,0826.2,4.99,000.00,021.8,021.1,000.0,030.1,023.3,18.7,0002.9,0010.26,0014.20,0009.83
2024-01-23 15:52:00,SystemResetWarning,0826.2,5.00,000.00,021.8,021.1,000.0,030.1,023.3,18.7,0002.9,0010.33,0014.36,0009.91
2024-01-23 15:53:00,SystemResetWarning,0826.2,5.00,000.00,021.9,021.1,000.0,030.1,023.3,18.7,0002.9,0010.35,0014.32,0009.94
2024-01-23 15:54:00,SystemResetWarning,0826.3,5.00,000.00,021.9,021.1,000.0,030.1,023.3,18.5,0002.9,0010.38,0014.38,0009.95
2024-01-23 15:55:00,SystemResetWarning,0826.3,5.00,000.00,021.9,021.1,000.0,030.2,023.3,18.6,0002.8,0010.38,0014.37,0009.97
2024-01-23 15:56:00,SystemResetWarning,0826.2,5.01,000.00,021.9,021.1,000.0,030.2,023.3,18.7,0002.8,0010.37,0014.64,0009.98
2024-01-23 15:57:00,SystemResetWarning,0826.2,5.00,000.00,021.9,021.1,000.0,030.2,023.3,18.5,0002.5,0010.40,0014.89,0010.00
2024-01-23 15:58:00,SystemResetWarning,0826.2,5.00,000.00,021.9,021.2,000.0,030.2,023.3,18.5,0002.2,0010.37,0014.96,0010.00
2024-01-23 15:59:00,SystemResetWarning,0826.3,5.00,000.00,021.9,021.2,000.0,030.2,023.3,18.5,0002.1,0010.32,0014.83,0009.97
